Peyton, CO

2:58 AM MST on February 21, 2017 (GMT -0700)
Meadow Lake

Weather History for KFLY - August, 2014

Change the Weather History Date:

Monday, August 4, 2014

  Actual Average (KCOS) Record (KCOS)
Temperature  
Mean Temperature 67 °F -  
Max Temperature 80 °F 80 °F 94 °F (2008)
Min Temperature 55 °F 56 °F 39 °F (1935)
Cooling Degree Days 2    
Growing Degree Days 17 (Base 50)    
Moisture  
Dew Point 49 °F    
Average Humidity 56    
Maximum Humidity 81    
Minimum Humidity 36    
Precipitation  
Precipitation 0.00 in - - ()
Sea Level Pressure  
Sea Level Pressure 30.28 in    
Wind  
Wind Speed 5 mph (North)    
Max Wind Speed 15 mph    
Max Gust Speed 29 mph    
Visibility 10 miles    
Events Rain , Thunderstorm    
Averages and records for this station are not official NWS values.
T = Trace of Precipitation, MM = Missing Value Source: NWS Daily Summary

Daily Weather History Graph

Daily Weather History Graph

Search for Another Location

Airport or City:

Trip Planner

Search our weather history database for the weather conditions in past years. The results will help you decide how hot, cold, wet, or windy it might be!

Date:

Astronomy

Aug. 04, 2014 Rise Set
Actual Time 6:01 AM MDT 8:06 PM MDT
Civil Twilight 5:32 AM MDT 8:35 PM MDT
Nautical Twilight 4:56 AM MDT 9:11 PM MDT
Astronomical Twilight 4:17 AM MDT 9:50 PM MDT
Moon 2:21 PM MDT (8/4) 12:09 AM MDT (8/4)
Length of Visible Light 15h 03m
Length of Day
14h 04m
First Quarter, 58% of the Moon is Illuminated
Aug 4
First Quarter
Aug 10
Full
Aug 17
Last Quarter
Aug 25
New
Sep 2
First Quarter

Hourly Weather History & Observations

Time (MDT) Temp. Dew Point Humidity Pressure Visibility Wind Dir Wind Speed Gust Speed Precip Events Conditions
12:15 AM 59.9 °F 49.1 °F 67% 30.31 in 10.0 mi North 4.6 mph - N/A   Clear
12:35 AM 59.0 °F 49.3 °F 70% 30.32 in 10.0 mi NNE 3.5 mph - N/A   Clear
12:55 AM 58.3 °F 49.1 °F 71% 30.31 in 10.0 mi NE 4.6 mph - N/A   Clear
1:15 AM 57.6 °F 49.1 °F 73% 30.31 in 10.0 mi NNE 3.5 mph - N/A   Clear
1:35 AM 57.2 °F 49.1 °F 74% 30.31 in 10.0 mi NNE 4.6 mph - N/A   Clear
1:55 AM 56.7 °F 49.3 °F 76% 30.31 in 10.0 mi NNE 4.6 mph - N/A   Clear
2:15 AM 56.1 °F 49.1 °F 77% 30.30 in 10.0 mi North 4.6 mph - N/A   Clear
2:35 AM 55.8 °F 49.1 °F 78% 30.30 in 10.0 mi North 4.6 mph - N/A   Clear
2:55 AM 56.7 °F 49.1 °F 76% 30.30 in 10.0 mi NNW 4.6 mph - N/A   Clear
3:15 AM 57.2 °F 48.9 °F 74% 30.29 in 10.0 mi North 3.5 mph - N/A   Clear
3:35 AM 56.8 °F 49.1 °F 75% 30.29 in 10.0 mi North 3.5 mph - N/A   Clear
3:55 AM 55.6 °F 49.3 °F 79% 30.28 in 10.0 mi Calm Calm - N/A   Clear
4:15 AM 55.4 °F 49.5 °F 80% 30.28 in 10.0 mi NNW 3.5 mph - N/A   Clear
4:35 AM 55.8 °F 49.5 °F 79% 30.28 in 10.0 mi Calm Calm - N/A   Clear
4:55 AM 55.4 °F 49.6 °F 81% 30.27 in 10.0 mi NNW 3.5 mph - N/A   Clear
5:15 AM 56.7 °F 49.1 °F 76% 30.26 in 10.0 mi NNE 3.5 mph - N/A   Clear
5:35 AM 57.4 °F 49.1 °F 74% 30.26 in 10.0 mi North 4.6 mph - N/A   Clear
5:55 AM 56.5 °F 50.4 °F 80% 30.27 in 10.0 mi North 3.5 mph - N/A   Clear
6:15 AM 58.5 °F 49.8 °F 73% 30.27 in 10.0 mi NNW 3.5 mph - N/A   Clear
6:35 AM 59.0 °F 50.9 °F 74% 30.28 in 10.0 mi NNW 4.6 mph - N/A   Clear
6:55 AM 61.5 °F 50.2 °F 66% 30.28 in 10.0 mi NNW 4.6 mph - N/A   Clear
7:15 AM 65.5 °F 50.5 °F 58% 30.28 in 10.0 mi NW 4.6 mph - N/A   Clear
7:35 AM 67.1 °F 50.4 °F 55% 30.28 in 10.0 mi Calm Calm - N/A   Clear
7:55 AM 70.0 °F 46.4 °F 43% 30.28 in 10.0 mi Calm Calm - N/A   Clear
8:15 AM 71.6 °F 46.6 °F 41% 30.28 in 10.0 mi Calm Calm - N/A   Clear
8:36 AM 72.1 °F 45.3 °F 38% 30.28 in 10.0 mi Calm Calm - N/A   Clear
8:55 AM 72.5 °F 47.5 °F 41% 30.28 in 10.0 mi SSW 3.5 mph - N/A   Clear
9:15 AM 73.2 °F 48.6 °F 42% 30.28 in 10.0 mi Calm Calm - N/A   Clear
9:35 AM 73.6 °F 50.5 °F 44% 30.28 in 10.0 mi SE 5.8 mph - N/A   Clear
9:55 AM 73.2 °F 51.1 °F 46% 30.28 in 10.0 mi SE 3.5 mph - N/A   Clear
10:15 AM 75.0 °F 50.7 °F 42% 30.28 in 10.0 mi SE 5.8 mph - N/A   Clear
10:35 AM 75.4 °F 51.1 °F 42% 30.29 in 10.0 mi SE 5.8 mph - N/A   Clear
10:55 AM 75.9 °F 51.3 °F 42% 30.29 in 10.0 mi ESE 5.8 mph - N/A   Clear
11:15 AM 76.1 °F 51.6 °F 42% 30.28 in 10.0 mi SE 6.9 mph - N/A   Clear
11:35 AM 76.6 °F 51.4 °F 41% 30.28 in 10.0 mi South 5.8 mph - N/A   Clear
11:55 AM 77.7 °F 50.0 °F 38% 30.28 in 10.0 mi South 4.6 mph - N/A   Clear
12:15 PM 78.4 °F 52.0 °F 40% 30.28 in 10.0 mi SE 6.9 mph - N/A   Clear
12:35 PM 78.1 °F 50.9 °F 39% 30.27 in 10.0 mi South 5.8 mph - N/A   Clear
12:55 PM 79.0 °F 52.0 °F 39% 30.27 in 10.0 mi ESE 6.9 mph - N/A   Clear
1:15 PM 79.5 °F 50.5 °F 36% 30.26 in 10.0 mi SSE 3.5 mph - N/A   Clear
1:35 PM 78.3 °F 49.3 °F 36% 30.26 in 10.0 mi Calm Calm - N/A   Clear
1:55 PM 77.9 °F 49.8 °F 37% 30.25 in 10.0 mi Calm Calm - N/A   Clear
2:15 PM 78.1 °F 50.7 °F 38% 30.25 in 10.0 mi Calm Calm - N/A   Clear
2:35 PM 77.0 °F 49.8 °F 38% 30.25 in 10.0 mi Calm Calm - N/A Thunderstorm Scattered Clouds
2:55 PM 75.7 °F 51.8 °F 43% 30.26 in 10.0 mi SSE 3.5 mph - N/A   Scattered Clouds
3:15 PM 73.4 °F 50.7 °F 45% 30.26 in 10.0 mi ENE 3.5 mph - N/A   Mostly Cloudy
3:35 PM 72.3 °F 48.6 °F 43% 30.26 in 10.0 mi East 3.5 mph - N/A Thunderstorm Overcast
3:55 PM 69.1 °F 50.0 °F 51% 30.26 in 10.0 mi SE 6.9 mph - N/A Rain , Thunderstorm Light Thunderstorms and Rain
4:15 PM 68.2 °F 47.5 °F 47% 30.28 in 10.0 mi North 5.8 mph - N/A Rain , Thunderstorm Light Thunderstorms and Rain
4:35 PM 66.0 °F 49.8 °F 56% 30.28 in 10.0 mi NE 12.7 mph 18.4 mph N/A Rain , Thunderstorm Light Thunderstorms and Rain
4:55 PM 66.2 °F 50.0 °F 56% 30.27 in 10.0 mi ESE 12.7 mph - N/A Rain , Thunderstorm Light Thunderstorms and Rain
5:15 PM 66.7 °F 50.4 °F 56% 30.27 in 10.0 mi East 4.6 mph - N/A Rain Light Rain
5:35 PM 68.0 °F 50.5 °F 54% 30.27 in 10.0 mi South 4.6 mph - N/A Rain Light Rain
5:55 PM 68.5 °F 50.9 °F 53% 30.27 in 10.0 mi West 3.5 mph - N/A Rain Light Rain
6:15 PM 70.0 °F 46.9 °F 44% 30.26 in 10.0 mi West 6.9 mph - N/A   Scattered Clouds
6:35 PM 69.6 °F 49.3 °F 48% 30.26 in 10.0 mi NW 3.5 mph - N/A   Scattered Clouds
6:55 PM 68.9 °F 47.8 °F 47% 30.27 in 10.0 mi Calm Calm - N/A   Overcast
7:15 PM 68.0 °F 51.8 °F 56% 30.27 in 10.0 mi WSW 4.6 mph - N/A   Scattered Clouds
7:35 PM 66.7 °F 48.7 °F 52% 30.28 in 10.0 mi SW 15.0 mph 28.8 mph N/A   Scattered Clouds
7:55 PM 63.5 °F 52.0 °F 66% 30.28 in 10.0 mi SW 12.7 mph 21.9 mph N/A   Clear
8:15 PM 63.3 °F 51.4 °F 65% 30.28 in 10.0 mi WSW 11.5 mph - N/A   Mostly Cloudy
8:35 PM 63.7 °F 51.1 °F 64% 30.30 in 10.0 mi WNW 10.4 mph - N/A   Overcast
8:55 PM 65.7 °F 48.7 °F 54% 30.30 in 10.0 mi WNW 10.4 mph - N/A   Mostly Cloudy
9:35 PM 64.9 °F 50.7 °F 60% 30.30 in 10.0 mi NW 11.5 mph 19.6 mph N/A   Scattered Clouds
9:55 PM 64.4 °F 46.2 °F 52% 30.29 in 10.0 mi NW 10.4 mph 21.9 mph N/A   Scattered Clouds
10:15 PM 63.9 °F 46.2 °F 53% 30.28 in 10.0 mi NW 12.7 mph 19.6 mph N/A   Clear
10:36 PM 65.3 °F 45.7 °F 49% 30.28 in 10.0 mi NW 9.2 mph - N/A   Clear
10:56 PM 65.5 °F 45.5 °F 48% 30.28 in 10.0 mi NW 10.4 mph - N/A   Scattered Clouds
11:16 PM 66.0 °F 46.2 °F 49% 30.28 in 10.0 mi NW 8.1 mph - N/A   Mostly Cloudy
11:36 PM 65.5 °F 49.5 °F 56% 30.27 in 10.0 mi NNW 9.2 mph - N/A   Mostly Cloudy
11:56 PM 65.5 °F 49.5 °F 56% 30.27 in 10.0 mi NNW 8.1 mph - N/A   Scattered Clouds